Time,TemperatureF,DewpointF,PressureIn,WindDirection,WindDirectionDegrees,WindSpeedMPH,WindSpeedGustMPH,Humidity,HourlyPrecipIn,Conditions,Clouds,dailyrainin,SoftwareType,DateUTC
2013-02-12 00:00:00,28.2,22.2,29.41,WNW,295,1.0,1.0,78,0.00,CLR,,0.00,WeatherDisplay:10.37,2013-02-12 06:00:00,
2013-02-12 00:05:00,28.2,22.2,29.41,West,277,2.0,2.0,78,0.00,CLR,,0.00,WeatherDisplay:10.37,2013-02-12 06:05:00,
2013-02-12 00:10:00,28.2,22.2,29.41,West,272,2.0,2.0,78,0.00,CLR,,0.00,WeatherDisplay:10.37,2013-02-12 06:10:00,
2013-02-12 00:15:00,28.2,22.2,29.41,West,275,2.0,2.0,78,0.00,CLR,,0.00,WeatherDisplay:10.37,2013-02-12 06:15:00,
2013-02-12 00:20:00,28.0,22.1,29.41,West,277,2.0,2.0,78,0.00,CLR,,0.00,WeatherDisplay:10.37,2013-02-12 06:20:00,
2013-02-12 00:25:00,28.0,22.1,29.41,West,279,2.0,2.0,78,0.00,CLR,,0.00,WeatherDisplay:10.37,2013-02-12 06:25:00,
2013-02-12 00:30:00,28.2,22.2,29.41,West,278,1.0,2.0,78,0.00,CLR,,0.00,WeatherDisplay:10.37,2013-02-12 06:30:00,
2013-02-12 00:35:00,28.0,22.1,29.41,West,275,1.0,2.0,78,0.00,CLR,,0.00,WeatherDisplay:10.37,2013-02-12 06:35:00,
2013-02-12 00:40:00,27.9,21.9,29.41,West,274,1.0,1.0,78,0.00,CLR,,0.00,WeatherDisplay:10.37,2013-02-12 06:40:00,
2013-02-12 00:45:00,28.0,22.1,29.41,West,270,1.0,2.0,78,0.00,CLR,,0.00,WeatherDisplay:10.37,2013-02-12 06:45:00,
2013-02-12 00:50:00,27.9,21.9,29.41,West,270,2.0,2.0,78,0.00,CLR,,0.00,WeatherDisplay:10.37,2013-02-12 06:50:00,
2013-02-12 00:55:00,28.0,22.1,29.41,West,270,2.0,2.0,78,0.00,CLR,,0.00,WeatherDisplay:10.37,2013-02-12 06:55:00,
2013-02-12 01:00:00,28.4,22.7,29.41,West,270,2.0,3.0,79,0.00,CLR,,0.00,WeatherDisplay:10.37,2013-02-12 07:00:00,
2013-02-12 01:05:00,28.6,22.9,29.41,West,274,3.0,3.0,79,0.00,CLR,,0.00,WeatherDisplay:10.37,2013-02-12 07:05:00,
2013-02-12 01:10:00,28.6,22.9,29.41,West,277,3.0,3.0,79,0.00,CLR,,0.00,WeatherDisplay:10.37,2013-02-12 07:10:00,
2013-02-12 01:15:00,28.0,22.4,29.41,West,277,3.0,3.0,79,0.00,CLR,,0.00,WeatherDisplay:10.37,2013-02-12 07:15:00,
2013-02-12 01:25:00,27.3,21.4,29.41,West,275,2.0,3.0,78,0.00,CLR,,0.00,WeatherDisplay:10.37,2013-02-12 07:25:00,
2013-02-12 01:30:00,27.1,21.2,29.41,West,275,2.0,2.0,78,0.00,CLR,,0.00,WeatherDisplay:10.37,2013-02-12 07:30:00,
2013-02-12 01:35:00,27.3,21.4,29.41,West,275,1.0,2.0,78,0.00,CLR,,0.00,WeatherDisplay:10.37,2013-02-12 07:35:00,
2013-02-12 01:40:00,27.5,21.8,29.41,West,275,1.0,1.0,79,0.00,CLR,,0.00,WeatherDisplay:10.37,2013-02-12 07:40:00,
2013-02-12 01:45:00,27.3,21.7,29.41,West,278,1.0,1.0,79,0.00,CLR,,0.00,WeatherDisplay:10.37,2013-02-12 07:45:00,
2013-02-12 01:50:00,27.1,21.5,29.41,West,278,1.0,1.0,79,0.00,CLR,,0.00,WeatherDisplay:10.37,2013-02-12 07:50:00,
2013-02-12 01:55:00,27.0,21.3,29.41,West,277,1.0,1.0,79,0.00,CLR,,0.00,WeatherDisplay:10.37,2013-02-12 07:55:00,
2013-02-12 02:00:00,26.8,21.1,29.41,West,275,1.0,1.0,79,0.00,CLR,,0.00,WeatherDisplay:10.37,2013-02-12 08:00:00,
2013-02-12 02:05:00,26.4,20.8,29.41,West,275,1.0,1.0,79,0.00,CLR,,0.00,WeatherDisplay:10.37,2013-02-12 08:05:00,
2013-02-12 02:10:00,26.4,20.8,29.41,West,275,0.0,1.0,79,0.00,CLR,,0.00,WeatherDisplay:10.37,2013-02-12 08:10:00,
2013-02-12 02:15:00,27.0,21.3,29.41,West,275,0.0,0.0,79,0.00,CLR,,0.00,WeatherDisplay:10.37,2013-02-12 08:15:00,
2013-02-12 02:20:00,27.7,22.3,29.41,West,278,0.0,0.0,80,0.00,CLR,,0.00,WeatherDisplay:10.37,2013-02-12 08:20:00,
2013-02-12 02:25:00,27.5,22.1,29.41,West,281,0.0,0.0,80,0.00,CLR,,0.00,WeatherDisplay:10.37,2013-02-12 08:25:00,
2013-02-12 02:30:00,27.1,21.8,29.41,WNW,286,0.0,0.0,80,0.00,CLR,,0.00,WeatherDisplay:10.37,2013-02-12 08:30:00,
2013-02-12 02:35:00,26.8,21.4,29.41,WNW,291,0.0,0.0,80,0.00,CLR,,0.00,WeatherDisplay:10.37,2013-02-12 08:35:00,
2013-02-12 02:40:00,26.8,21.4,29.41,WNW,294,0.0,0.0,80,0.00,CLR,,0.00,WeatherDisplay:10.37,2013-02-12 08:40:00,
2013-02-12 02:45:00,26.6,21.0,29.41,WNW,293,0.0,0.0,79,0.00,CLR,,0.00,WeatherDisplay:10.37,2013-02-12 08:45:00,
2013-02-12 02:50:00,27.1,21.8,29.41,WNW,286,0.0,0.0,80,0.00,CLR,,0.00,WeatherDisplay:10.37,2013-02-12 08:50:00,
2013-02-12 02:55:00,27.3,22.0,29.41,WNW,285,0.0,0.0,80,0.00,CLR,,0.00,WeatherDisplay:10.37,2013-02-12 08:55:00,
2013-02-12 03:00:00,27.5,22.1,29.41,WNW,285,0.0,0.0,80,0.00,CLR,,0.00,WeatherDisplay:10.37,2013-02-12 09:00:00,
2013-02-12 03:05:00,27.7,22.6,29.41,WNW,296,0.0,0.0,81,0.00,CLR,,0.00,WeatherDisplay:10.37,2013-02-12 09:05:00,
2013-02-12 03:10:00,27.7,22.6,29.41,WNW,301,1.0,1.0,81,0.00,CLR,,0.00,WeatherDisplay:10.37,2013-02-12 09:10:00,
2013-02-12 03:15:00,27.5,22.4,29.41,WNW,301,1.0,1.0,81,0.00,CLR,,0.00,WeatherDisplay:10.37,2013-02-12 09:15:00,
2013-02-12 03:20:00,27.3,22.3,29.41,WNW,300,1.0,1.0,81,0.00,CLR,,0.00,WeatherDisplay:10.37,2013-02-12 09:20:00,
2013-02-12 03:25:00,27.1,21.8,29.41,WNW,300,1.0,1.0,80,0.00,CLR,,0.00,WeatherDisplay:10.37,2013-02-12 09:25:00,
2013-02-12 03:30:00,27.1,22.1,29.41,WNW,300,1.0,1.0,81,0.00,CLR,,0.00,WeatherDisplay:10.37,2013-02-12 09:30:00,
2013-02-12 03:35:00,27.3,22.3,29.41,WNW,300,1.0,1.0,81,0.00,CLR,,0.00,WeatherDisplay:10.37,2013-02-12 09:35:00,
2013-02-12 03:40:00,27.1,22.1,29.41,WNW,300,1.0,1.0,81,0.00,CLR,,0.00,WeatherDisplay:10.37,2013-02-12 09:40:00,
2013-02-12 03:45:00,26.6,21.3,29.41,WNW,297,1.0,1.0,80,0.00,CLR,,0.00,WeatherDisplay:10.37,2013-02-12 09:45:00,
2013-02-12 03:50:00,26.6,21.3,29.41,WNW,295,1.0,1.0,80,0.00,CLR,,0.00,WeatherDisplay:10.37,2013-02-12 09:50:00,
2013-02-12 03:55:00,26.8,21.4,29.41,WNW,295,1.0,1.0,80,0.00,CLR,,0.00,WeatherDisplay:10.37,2013-02-12 09:55:00,
2013-02-12 04:00:00,26.8,21.7,29.38,WNW,295,1.0,1.0,81,0.00,CLR,,0.00,WeatherDisplay:10.37,2013-02-12 10:00:00,
2013-02-12 04:05:00,26.8,21.7,29.41,WNW,295,1.0,1.0,81,0.00,CLR,,0.00,WeatherDisplay:10.37,2013-02-12 10:05:00,
2013-02-12 04:10:00,26.6,21.3,29.41,WNW,295,1.0,1.0,80,0.00,CLR,,0.00,WeatherDisplay:10.37,2013-02-12 10:10:00,
2013-02-12 04:15:00,26.2,20.9,29.38,WNW,295,1.0,1.0,80,0.00,CLR,,0.00,WeatherDisplay:10.37,2013-02-12 10:15:00,
2013-02-12 04:20:00,26.1,20.7,29.38,WNW,292,0.0,1.0,80,0.00,CLR,,0.00,WeatherDisplay:10.37,2013-02-12 10:20:00,
2013-02-12 04:25:00,25.9,20.6,29.38,WNW,290,1.0,1.0,80,0.00,CLR,,0.00,WeatherDisplay:10.37,2013-02-12 10:25:00,
2013-02-12 04:30:00,25.7,20.4,29.41,WNW,283,1.0,1.0,80,0.00,CLR,,0.00,WeatherDisplay:10.37,2013-02-12 10:30:00,
2013-02-12 04:35:00,25.5,20.2,29.41,West,275,1.0,1.0,80,0.00,CLR,,0.00,WeatherDisplay:10.37,2013-02-12 10:35:00,
2013-02-12 04:40:00,25.7,20.4,29.41,West,273,1.0,1.0,80,0.00,CLR,,0.00,WeatherDisplay:10.37,2013-02-12 10:40:00,
2013-02-12 04:45:00,25.3,20.0,29.41,West,272,1.0,1.0,80,0.00,CLR,,0.00,WeatherDisplay:10.37,2013-02-12 10:45:00,
2013-02-12 04:50:00,25.5,20.2,29.41,West,275,1.0,1.0,80,0.00,CLR,,0.00,WeatherDisplay:10.37,2013-02-12 10:50:00,
2013-02-12 04:55:00,25.5,20.2,29.41,West,273,1.0,1.0,80,0.00,CLR,,0.00,WeatherDisplay:10.37,2013-02-12 10:55:00,
2013-02-12 05:00:00,25.3,20.0,29.41,West,270,1.0,1.0,80,0.00,CLR,,0.00,WeatherDisplay:10.37,2013-02-12 11:00:00,
2013-02-12 05:05:00,25.3,20.0,29.41,West,275,0.0,1.0,80,0.00,CLR,,0.00,WeatherDisplay:10.37,2013-02-12 11:05:00,
2013-02-12 05:10:00,25.3,20.0,29.41,West,279,0.0,0.0,80,0.00,CLR,,0.00,WeatherDisplay:10.37,2013-02-12 11:10:00,
2013-02-12 05:15:00,25.9,20.9,29.41,WNW,284,0.0,0.0,81,0.00,CLR,,0.00,WeatherDisplay:10.37,2013-02-12 11:15:00,
2013-02-12 05:20:00,26.1,21.0,29.38,WNW,298,1.0,1.0,81,0.00,CLR,,0.00,WeatherDisplay:10.37,2013-02-12 11:20:00,
2013-02-12 05:25:00,25.9,20.9,29.38,WNW,301,1.0,1.0,81,0.00,CLR,,0.00,WeatherDisplay:10.37,2013-02-12 11:25:00,
2013-02-12 05:30:00,25.9,20.9,29.38,WNW,300,1.0,1.0,81,0.00,CLR,,0.00,WeatherDisplay:10.37,2013-02-12 11:30:00,
2013-02-12 05:35:00,25.7,20.7,29.38,WNW,294,1.0,1.0,81,0.00,CLR,,0.00,WeatherDisplay:10.37,2013-02-12 11:35:00,
2013-02-12 05:40:00,25.7,20.7,29.38,WNW,292,1.0,1.0,81,0.00,CLR,,0.00,WeatherDisplay:10.37,2013-02-12 11:40:00,
2013-02-12 05:45:00,26.1,21.0,29.38,WNW,294,1.0,1.0,81,0.00,CLR,,0.00,WeatherDisplay:10.37,2013-02-12 11:45:00,
2013-02-12 05:50:00,26.2,21.5,29.38,WNW,296,1.0,2.0,82,0.00,CLR,,0.00,WeatherDisplay:10.37,2013-02-12 11:50:00,
2013-02-12 05:55:00,26.2,21.5,29.38,WNW,294,1.0,2.0,82,0.00,CLR,,0.00,WeatherDisplay:10.37,2013-02-12 11:55:00,
2013-02-12 06:00:00,25.5,20.5,29.38,West,281,2.0,2.0,81,0.00,CLR,,0.00,WeatherDisplay:10.37,2013-02-12 12:00:00,
2013-02-12 06:05:00,25.2,20.1,29.38,West,275,1.0,2.0,81,0.00,CLR,,0.00,WeatherDisplay:10.37,2013-02-12 12:05:00,
2013-02-12 06:10:00,25.2,20.1,29.38,West,275,1.0,2.0,81,0.00,CLR,,0.00,WeatherDisplay:10.37,2013-02-12 12:10:00,
2013-02-12 06:15:00,24.8,19.8,29.41,West,275,1.0,1.0,81,0.00,CLR,,0.00,WeatherDisplay:10.37,2013-02-12 12:15:00,
2013-02-12 06:20:00,24.6,19.6,29.41,West,275,1.0,1.0,81,0.00,CLR,,0.00,WeatherDisplay:10.37,2013-02-12 12:20:00,
2013-02-12 06:25:00,24.6,19.6,29.41,West,275,1.0,1.0,81,0.00,CLR,,0.00,WeatherDisplay:10.37,2013-02-12 12:25:00,
2013-02-12 06:30:00,24.6,19.6,29.41,West,272,1.0,1.0,81,0.00,CLR,,0.00,WeatherDisplay:10.37,2013-02-12 12:30:00,
2013-02-12 06:35:00,24.8,19.8,29.41,West,273,1.0,1.0,81,0.00,CLR,,0.00,WeatherDisplay:10.37,2013-02-12 12:35:00,
2013-02-12 06:40:00,24.6,19.6,29.41,West,272,1.0,1.0,81,0.00,CLR,,0.00,WeatherDisplay:10.37,2013-02-12 12:40:00,
2013-02-12 06:45:00,24.8,20.1,29.41,West,266,1.0,1.0,82,0.00,CLR,,0.00,WeatherDisplay:10.37,2013-02-12 12:45:00,
2013-02-12 06:50:00,25.0,20.3,29.41,West,270,1.0,1.0,82,0.00,CLR,,0.00,WeatherDisplay:10.37,2013-02-12 12:50:00,
2013-02-12 06:55:00,25.0,20.3,29.41,West,269,1.0,1.0,82,0.00,CLR,,0.00,WeatherDisplay:10.37,2013-02-12 12:55:00,
2013-02-12 07:00:00,25.0,20.3,29.41,West,265,1.0,1.0,82,0.00,CLR,,0.00,WeatherDisplay:10.37,2013-02-12 13:00:00,
2013-02-12 07:05:00,25.0,20.3,29.41,West,268,1.0,1.0,82,0.00,CLR,,0.00,WeatherDisplay:10.37,2013-02-12 13:05:00,
2013-02-12 07:10:00,25.2,20.4,29.41,West,270,1.0,1.0,82,0.00,CLR,,0.00,WeatherDisplay:10.37,2013-02-12 13:10:00,
2013-02-12 07:15:00,25.9,21.1,29.41,West,272,1.0,1.0,82,0.00,CLR,,0.00,WeatherDisplay:10.37,2013-02-12 13:15:00,
2013-02-12 07:20:00,26.6,21.8,29.41,West,275,0.0,1.0,82,0.00,CLR,,0.00,WeatherDisplay:10.37,2013-02-12 13:20:00,
2013-02-12 07:25:00,27.1,22.4,29.41,West,275,0.0,1.0,82,0.00,CLR,,0.00,WeatherDisplay:10.37,2013-02-12 13:25:00,
2013-02-12 07:30:00,27.9,23.4,29.41,West,275,0.0,0.0,83,0.00,CLR,,0.00,WeatherDisplay:10.37,2013-02-12 13:30:00,
2013-02-12 07:35:00,28.2,23.7,29.41,West,280,0.0,0.0,83,0.00,CLR,,0.00,WeatherDisplay:10.37,2013-02-12 13:35:00,
2013-02-12 07:40:00,29.1,24.6,29.41,WNW,284,0.0,0.0,83,0.00,CLR,,0.00,WeatherDisplay:10.37,2013-02-12 13:40:00,
2013-02-12 07:45:00,29.8,25.3,29.41,WNW,285,1.0,1.0,83,0.00,CLR,,0.00,WeatherDisplay:10.37,2013-02-12 13:45:00,
2013-02-12 07:50:00,30.9,26.4,29.41,WNW,285,1.0,1.0,83,0.00,CLR,,0.00,WeatherDisplay:10.37,2013-02-12 13:50:00,
2013-02-12 07:55:00,30.9,26.4,29.41,WNW,288,1.0,1.0,83,0.00,CLR,,0.00,WeatherDisplay:10.37,2013-02-12 13:55:00,
2013-02-12 08:00:00,31.1,26.5,29.41,WNW,294,1.0,1.0,83,0.00,CLR,,0.00,WeatherDisplay:10.37,2013-02-12 14:00:00,
2013-02-12 08:05:00,32.2,27.6,29.38,NW,315,2.0,2.0,83,0.00,CLR,,0.00,WeatherDisplay:10.37,2013-02-12 14:05:00,
2013-02-12 08:10:00,32.2,27.3,29.41,NW,316,2.0,2.0,82,0.00,CLR,,0.00,WeatherDisplay:10.37,2013-02-12 14:10:00,
2013-02-12 08:15:00,32.5,27.4,29.41,NW,306,2.0,3.0,81,0.00,CLR,,0.00,WeatherDisplay:10.37,2013-02-12 14:15:00,
2013-02-12 08:20:00,32.7,26.9,29.38,NW,306,3.0,3.0,79,0.00,CLR,,0.00,WeatherDisplay:10.37,2013-02-12 14:20:00,
2013-02-12 08:25:00,32.9,26.8,29.38,NW,306,3.0,3.0,78,0.00,CLR,,0.00,WeatherDisplay:10.37,2013-02-12 14:25:00,
2013-02-12 08:30:00,33.4,27.0,29.38,WNW,303,3.0,4.0,77,0.00,CLR,,0.00,WeatherDisplay:10.37,2013-02-12 14:30:00,
2013-02-12 08:35:00,33.4,26.4,29.41,WNW,303,5.0,5.0,75,0.00,CLR,,0.00,WeatherDisplay:10.37,2013-02-12 14:35:00,
2013-02-12 08:40:00,33.8,26.4,29.41,NW,304,5.0,5.0,74,0.00,CLR,,0.00,WeatherDisplay:10.37,2013-02-12 14:40:00,
2013-02-12 08:45:00,33.1,25.4,29.41,WNW,301,5.0,5.0,73,0.00,CLR,,0.00,WeatherDisplay:10.37,2013-02-12 14:45:00,
2013-02-12 08:50:00,32.0,24.0,29.41,WNW,300,5.0,5.0,72,0.00,CLR,,0.00,WeatherDisplay:10.37,2013-02-12 14:50:00,
2013-02-12 08:55:00,32.0,24.0,29.41,NW,304,6.0,6.0,72,0.00,CLR,,0.00,WeatherDisplay:10.37,2013-02-12 14:55:00,
2013-02-12 09:00:00,32.7,24.7,29.41,NW,310,6.0,6.0,72,0.00,CLR,,0.00,WeatherDisplay:10.37,2013-02-12 15:00:00,
2013-02-12 09:05:00,34.2,26.1,29.41,NW,307,6.0,6.0,72,0.00,CLR,,0.00,WeatherDisplay:10.37,2013-02-12 15:05:00,
2013-02-12 09:10:00,33.8,25.4,29.41,NW,306,6.0,6.0,71,0.00,CLR,,0.00,WeatherDisplay:10.37,2013-02-12 15:10:00,
2013-02-12 09:15:00,34.3,25.6,29.41,NW,312,6.0,6.0,70,0.00,CLR,,0.00,WeatherDisplay:10.37,2013-02-12 15:15:00,
2013-02-12 09:20:00,34.9,25.7,29.41,NW,314,6.0,6.0,69,0.00,CLR,,0.00,WeatherDisplay:10.37,2013-02-12 15:20:00,
2013-02-12 09:25:00,34.7,25.6,29.41,NW,308,6.0,6.0,69,0.00,CLR,,0.00,WeatherDisplay:10.37,2013-02-12 15:25:00,
2013-02-12 09:30:00,35.1,25.6,29.41,WNW,300,6.0,6.0,68,0.00,CLR,,0.00,WeatherDisplay:10.37,2013-02-12 15:30:00,
2013-02-12 09:35:00,35.2,25.0,29.41,NW,314,6.0,6.0,66,0.00,CLR,,0.00,WeatherDisplay:10.37,2013-02-12 15:35:00,
2013-02-12 09:40:00,35.2,25.0,29.41,NW,318,6.0,6.0,66,0.00,CLR,,0.00,WeatherDisplay:10.37,2013-02-12 15:40:00,
2013-02-12 09:45:00,36.5,25.1,29.41,NW,311,6.0,6.0,63,0.00,CLR,,0.00,WeatherDisplay:10.37,2013-02-12 15:45:00,
2013-02-12 09:50:00,36.7,24.5,29.41,NW,305,6.0,6.0,61,0.00,CLR,,0.00,WeatherDisplay:10.37,2013-02-12 15:50:00,
2013-02-12 09:55:00,37.0,24.8,29.41,WNW,301,6.0,6.0,61,0.00,CLR,,0.00,WeatherDisplay:10.37,2013-02-12 15:55:00,
2013-02-12 10:00:00,37.6,25.3,29.41,WNW,295,6.0,6.0,61,0.00,CLR,,0.00,WeatherDisplay:10.37,2013-02-12 16:00:00,
2013-02-12 10:05:00,38.5,25.8,29.41,WNW,293,6.0,6.0,60,0.00,CLR,,0.00,WeatherDisplay:10.37,2013-02-12 16:05:00,
2013-02-12 10:10:00,38.7,25.6,29.41,WNW,296,6.0,6.0,59,0.00,CLR,,0.00,WeatherDisplay:10.37,2013-02-12 16:10:00,
2013-02-12 10:15:00,38.8,25.3,29.41,WNW,289,5.0,5.0,58,0.00,CLR,,0.00,WeatherDisplay:10.37,2013-02-12 16:15:00,
2013-02-12 10:20:00,39.7,25.7,29.41,WNW,282,5.0,5.0,57,0.00,CLR,,0.00,WeatherDisplay:10.37,2013-02-12 16:20:00,
2013-02-12 10:25:00,39.9,25.9,29.41,West,281,5.0,5.0,57,0.00,CLR,,0.00,WeatherDisplay:10.37,2013-02-12 16:25:00,
2013-02-12 10:30:00,40.3,25.8,29.38,West,275,5.0,5.0,56,0.00,CLR,,0.00,WeatherDisplay:10.37,2013-02-12 16:30:00,
2013-02-12 10:35:00,40.5,25.5,29.38,West,277,5.0,5.0,55,0.00,CLR,,0.00,WeatherDisplay:10.37,2013-02-12 16:35:00,
2013-02-12 10:40:00,40.1,24.8,29.38,WNW,293,5.0,5.0,54,0.00,CLR,,0.00,WeatherDisplay:10.37,2013-02-12 16:40:00,
2013-02-12 10:45:00,39.4,23.7,29.38,NNW,335,5.0,5.0,53,0.00,CLR,,0.00,WeatherDisplay:10.37,2013-02-12 16:45:00,
2013-02-12 10:50:00,39.0,23.8,29.38,NNW,338,5.0,5.0,54,0.00,CLR,,0.00,WeatherDisplay:10.37,2013-02-12 16:50:00,
2013-02-12 10:55:00,39.4,23.7,29.38,NNW,328,5.0,5.0,53,0.00,CLR,,0.00,WeatherDisplay:10.37,2013-02-12 16:55:00,
2013-02-12 11:00:00,39.7,24.0,29.38,NW,309,6.0,6.0,53,0.00,CLR,,0.00,WeatherDisplay:10.37,2013-02-12 17:00:00,
2013-02-12 11:05:00,40.3,24.0,29.38,NW,313,6.0,6.0,52,0.00,CLR,,0.00,WeatherDisplay:10.37,2013-02-12 17:05:00,
2013-02-12 11:10:00,40.8,24.5,29.38,NW,312,6.0,6.0,52,0.00,CLR,,0.00,WeatherDisplay:10.37,2013-02-12 17:10:00,
2013-02-12 11:15:00,39.7,23.5,29.38,NW,314,6.0,6.0,52,0.00,CLR,,0.00,WeatherDisplay:10.37,2013-02-12 17:15:00,
2013-02-12 11:20:00,40.6,24.8,29.38,NW,314,6.0,6.0,53,0.00,CLR,,0.00,WeatherDisplay:10.37,2013-02-12 17:20:00,
2013-02-12 11:25:00,41.5,25.2,29.38,NW,305,6.0,6.0,52,0.00,CLR,,0.00,WeatherDisplay:10.37,2013-02-12 17:25:00,
2013-02-12 11:30:00,42.1,24.8,29.38,WNW,295,6.0,6.0,50,0.00,CLR,,0.00,WeatherDisplay:10.37,2013-02-12 17:30:00,
2013-02-12 11:35:00,42.6,24.8,29.38,West,280,6.0,6.0,49,0.00,CLR,,0.00,WeatherDisplay:10.37,2013-02-12 17:35:00,
2013-02-12 11:45:00,42.1,23.8,29.38,West,275,6.0,6.0,48,0.00,CLR,,0.00,WeatherDisplay:10.37,2013-02-12 17:45:00,
2013-02-12 11:50:00,43.0,24.6,29.38,WNW,288,6.0,6.0,48,0.00,CLR,,0.00,WeatherDisplay:10.37,2013-02-12 17:50:00,
2013-02-12 11:55:00,44.1,26.1,29.38,WNW,293,6.0,6.0,49,0.00,CLR,,0.00,WeatherDisplay:10.37,2013-02-12 17:55:00,
2013-02-12 12:00:00,44.2,25.3,29.35,WNW,290,6.0,6.0,47,0.00,CLR,,0.00,WeatherDisplay:10.37,2013-02-12 18:00:00,
2013-02-12 12:05:00,43.9,24.4,29.35,WNW,285,5.0,6.0,46,0.00,CLR,,0.00,WeatherDisplay:10.37,2013-02-12 18:05:00,
2013-02-12 12:10:00,42.8,22.9,29.35,West,280,6.0,6.0,45,0.00,CLR,,0.00,WeatherDisplay:10.37,2013-02-12 18:10:00,
2013-02-12 12:15:00,41.4,22.6,29.35,NW,315,5.0,5.0,47,0.00,CLR,,0.00,WeatherDisplay:10.37,2013-02-12 18:15:00,
2013-02-12 12:20:00,41.4,23.6,29.35,NNW,327,5.0,5.0,49,0.00,CLR,,0.00,WeatherDisplay:10.37,2013-02-12 18:20:00,
2013-02-12 12:25:00,41.4,23.6,29.35,NW,311,5.0,5.0,49,0.00,CLR,,0.00,WeatherDisplay:10.37,2013-02-12 18:25:00,
2013-02-12 12:30:00,43.0,25.1,29.35,WNW,282,5.0,5.0,49,0.00,CLR,,0.00,WeatherDisplay:10.37,2013-02-12 18:30:00,
2013-02-12 12:35:00,43.7,24.8,29.35,WNW,288,5.0,5.0,47,0.00,CLR,,0.00,WeatherDisplay:10.37,2013-02-12 18:35:00,
2013-02-12 12:40:00,43.3,23.9,29.35,WNW,294,5.0,5.0,46,0.00,CLR,,0.00,WeatherDisplay:10.37,2013-02-12 18:40:00,
2013-02-12 12:45:00,43.3,23.9,29.35,WNW,296,5.0,5.0,46,0.00,CLR,,0.00,WeatherDisplay:10.37,2013-02-12 18:45:00,
2013-02-12 12:50:00,43.0,23.6,29.35,WNW,290,5.0,5.0,46,0.00,CLR,,0.00,WeatherDisplay:10.37,2013-02-12 18:50:00,
2013-02-12 12:55:00,43.2,23.8,29.35,WNW,292,6.0,6.0,46,0.00,CLR,,0.00,WeatherDisplay:10.37,2013-02-12 18:55:00,
2013-02-12 13:00:00,43.9,25.4,29.35,WNW,295,6.0,6.0,48,0.00,CLR,,0.00,WeatherDisplay:10.37,2013-02-12 19:00:00,
2013-02-12 13:05:00,44.4,25.9,29.35,WNW,295,6.0,6.0,48,0.00,CLR,,0.00,WeatherDisplay:10.37,2013-02-12 19:05:00,
2013-02-12 13:10:00,43.9,25.4,29.35,WNW,295,6.0,6.0,48,0.00,CLR,,0.00,WeatherDisplay:10.37,2013-02-12 19:10:00,
2013-02-12 13:15:00,44.8,25.8,29.35,WNW,295,6.0,6.0,47,0.00,CLR,,0.00,WeatherDisplay:10.37,2013-02-12 19:15:00,
2013-02-12 13:20:00,44.8,26.3,29.35,WNW,295,6.0,6.0,48,0.00,CLR,,0.00,WeatherDisplay:10.37,2013-02-12 19:20:00,
2013-02-12 13:25:00,45.1,26.1,29.35,WNW,295,7.0,7.0,47,0.00,CLR,,0.00,WeatherDisplay:10.37,2013-02-12 19:25:00,
2013-02-12 13:30:00,44.8,25.2,29.35,WNW,295,7.0,7.0,46,0.00,CLR,,0.00,WeatherDisplay:10.37,2013-02-12 19:30:00,
2013-02-12 13:35:00,45.1,27.1,29.35,WNW,295,7.0,7.0,49,0.00,CLR,,0.00,WeatherDisplay:10.37,2013-02-12 19:35:00,
2013-02-12 13:40:00,45.0,27.4,29.35,WNW,295,7.0,7.0,50,0.00,CLR,,0.00,WeatherDisplay:10.37,2013-02-12 19:40:00,
2013-02-12 13:45:00,44.8,26.8,29.35,WNW,295,7.0,7.0,49,0.00,CLR,,0.00,WeatherDisplay:10.37,2013-02-12 19:45:00,
2013-02-12 13:50:00,44.6,25.6,29.35,WNW,295,7.0,7.0,47,0.00,CLR,,0.00,WeatherDisplay:10.37,2013-02-12 19:50:00,
2013-02-12 13:55:00,43.5,25.1,29.35,WNW,295,7.0,7.0,48,0.00,CLR,,0.00,WeatherDisplay:10.37,2013-02-12 19:55:00,
2013-02-12 14:00:00,42.4,25.1,29.35,WNW,295,7.0,7.0,50,0.00,CLR,,0.00,WeatherDisplay:10.37,2013-02-12 20:00:00,
2013-02-12 14:05:00,42.4,25.1,29.35,WNW,295,7.0,7.0,50,0.00,CLR,,0.00,WeatherDisplay:10.37,2013-02-12 20:05:00,
2013-02-12 14:10:00,42.1,24.8,29.35,WNW,295,7.0,7.0,50,0.00,CLR,,0.00,WeatherDisplay:10.37,2013-02-12 20:10:00,
2013-02-12 14:14:00,41.9,24.6,29.35,WNW,295,7.0,7.0,50,0.00,CLR,,0.00,WeatherDisplay:10.37,2013-02-12 20:14:00,
2013-02-12 14:20:00,43.3,25.9,29.35,WNW,295,7.0,7.0,50,0.00,CLR,,0.00,WeatherDisplay:10.37,2013-02-12 20:20:00,
2013-02-12 14:25:00,43.7,26.3,29.32,WNW,295,7.0,7.0,50,0.00,CLR,,0.00,WeatherDisplay:10.37,2013-02-12 20:25:00,
2013-02-12 14:30:00,43.3,25.9,29.32,WNW,295,7.0,7.0,50,0.00,CLR,,0.00,WeatherDisplay:10.37,2013-02-12 20:30:00,
2013-02-12 14:35:00,43.3,25.9,29.32,WNW,295,7.0,7.0,50,0.00,CLR,,0.00,WeatherDisplay:10.37,2013-02-12 20:35:00,
2013-02-12 14:40:00,43.0,25.6,29.32,WNW,295,7.0,7.0,50,0.00,CLR,,0.00,WeatherDisplay:10.37,2013-02-12 20:40:00,
2013-02-12 14:45:00,42.1,25.2,29.32,WNW,295,7.0,7.0,51,0.00,CLR,,0.00,WeatherDisplay:10.37,2013-02-12 20:45:00,
2013-02-12 14:50:00,41.9,24.6,29.32,WNW,295,7.0,7.0,50,0.00,CLR,,0.00,WeatherDisplay:10.37,2013-02-12 20:50:00,
2013-02-12 14:55:00,41.9,24.6,29.32,WNW,295,7.0,7.0,50,0.00,CLR,,0.00,WeatherDisplay:10.37,2013-02-12 20:55:00,
2013-02-12 15:00:00,44.2,27.2,29.32,WNW,295,7.0,7.0,51,0.00,CLR,,0.00,WeatherDisplay:10.37,2013-02-12 21:00:00,
2013-02-12 15:05:00,44.2,27.2,29.32,WNW,295,7.0,7.0,51,0.00,CLR,,0.00,WeatherDisplay:10.37,2013-02-12 21:05:00,
2013-02-12 15:10:00,44.2,27.2,29.32,WNW,295,7.0,7.0,51,0.00,CLR,,0.00,WeatherDisplay:10.37,2013-02-12 21:10:00,
2013-02-12 15:15:00,44.2,27.2,29.32,WNW,295,7.0,7.0,51,0.00,CLR,,0.00,WeatherDisplay:10.37,2013-02-12 21:15:00,
2013-02-12 15:20:00,44.2,27.2,29.32,WNW,295,7.0,7.0,51,0.00,CLR,,0.00,WeatherDisplay:10.37,2013-02-12 21:20:00,
2013-02-12 15:25:00,44.2,27.2,29.32,WNW,295,7.0,7.0,51,0.00,CLR,,0.00,WeatherDisplay:10.37,2013-02-12 21:25:00,
2013-02-12 15:30:00,44.2,27.2,29.32,WNW,295,7.0,7.0,51,0.00,CLR,,0.00,WeatherDisplay:10.37,2013-02-12 21:30:00,
2013-02-12 15:35:00,44.2,27.2,29.32,WNW,295,7.0,7.0,51,0.00,CLR,,0.00,WeatherDisplay:10.37,2013-02-12 21:35:00,
2013-02-12 15:40:00,44.2,27.2,29.32,WNW,295,7.0,7.0,51,0.00,CLR,,0.00,WeatherDisplay:10.37,2013-02-12 21:40:00,
2013-02-12 15:44:00,44.2,27.2,29.32,WNW,295,7.0,7.0,51,0.00,CLR,,0.00,WeatherDisplay:10.37,2013-02-12 21:44:00,
2013-02-12 15:50:00,44.2,27.2,29.29,WNW,291,7.0,7.0,51,0.00,CLR,,0.00,WeatherDisplay:10.37,2013-02-12 21:50:00,
2013-02-12 15:55:00,44.2,27.2,29.29,WNW,288,7.0,7.0,51,0.00,CLR,,0.00,WeatherDisplay:10.37,2013-02-12 21:55:00,
2013-02-12 15:59:00,44.2,27.2,29.29,WNW,285,7.0,7.0,51,0.00,CLR,,0.00,WeatherDisplay:10.37,2013-02-12 21:59:00,
2013-02-12 16:05:00,44.2,27.2,29.29,WNW,285,6.0,7.0,51,0.00,CLR,,0.00,WeatherDisplay:10.37,2013-02-12 22:05:00,
2013-02-12 16:10:00,44.2,27.2,29.29,WNW,292,6.0,6.0,51,0.00,CLR,,0.00,WeatherDisplay:10.37,2013-02-12 22:10:00,
2013-02-12 16:14:00,44.2,27.2,29.29,NW,305,5.0,5.0,51,0.00,CLR,,0.00,WeatherDisplay:10.37,2013-02-12 22:14:00,
2013-02-12 16:19:00,44.2,27.2,29.29,WNW,301,5.0,5.0,51,0.00,CLR,,0.00,WeatherDisplay:10.37,2013-02-12 22:19:00,
2013-02-12 16:25:00,44.2,27.2,29.29,WNW,295,3.0,5.0,51,0.00,CLR,,0.00,WeatherDisplay:10.37,2013-02-12 22:25:00,
2013-02-12 16:30:00,44.2,27.2,29.29,West,281,3.0,4.0,51,0.00,CLR,,0.00,WeatherDisplay:10.37,2013-02-12 22:30:00,
2013-02-12 16:35:00,44.2,27.2,29.29,West,275,3.0,3.0,51,0.00,CLR,,0.00,WeatherDisplay:10.37,2013-02-12 22:35:00,
2013-02-12 16:40:00,44.2,27.2,29.29,West,269,3.0,3.0,51,0.00,CLR,,0.00,WeatherDisplay:10.37,2013-02-12 22:40:00,
2013-02-12 16:45:00,44.2,27.2,29.29,West,260,2.0,3.0,51,0.00,CLR,,0.00,WeatherDisplay:10.37,2013-02-12 22:45:00,
2013-02-12 16:50:00,44.2,27.2,29.26,West,260,2.0,2.0,51,0.00,CLR,,0.00,WeatherDisplay:10.37,2013-02-12 22:50:00,
2013-02-12 16:55:00,44.2,27.2,29.26,West,260,2.0,2.0,51,0.00,CLR,,0.00,WeatherDisplay:10.37,2013-02-12 22:55:00,
2013-02-12 17:00:00,44.2,27.2,29.26,West,260,1.0,2.0,51,0.00,CLR,,0.00,WeatherDisplay:10.37,2013-02-12 23:00:00,
2013-02-12 17:05:00,44.2,27.2,29.26,WSW,256,1.0,2.0,51,0.00,CLR,,0.00,WeatherDisplay:10.37,2013-02-12 23:05:00,
2013-02-12 17:10:00,44.2,27.2,29.26,WSW,253,1.0,2.0,51,0.00,CLR,,0.00,WeatherDisplay:10.37,2013-02-12 23:10:00,
2013-02-12 17:15:00,44.2,27.2,29.26,WSW,250,1.0,2.0,51,0.00,CLR,,0.00,WeatherDisplay:10.37,2013-02-12 23:15:00,
2013-02-12 17:20:00,44.2,27.2,29.26,WSW,250,1.0,1.0,51,0.00,CLR,,0.00,WeatherDisplay:10.37,2013-02-12 23:20:00,
2013-02-12 17:25:00,44.2,27.2,29.26,WSW,250,1.0,1.0,51,0.00,CLR,,0.00,WeatherDisplay:10.37,2013-02-12 23:25:00,
2013-02-12 17:30:00,44.2,27.2,29.26,WSW,250,1.0,1.0,51,0.00,CLR,,0.00,WeatherDisplay:10.37,2013-02-12 23:30:00,
2013-02-12 17:35:00,44.2,27.2,29.26,WSW,250,1.0,1.0,51,0.00,CLR,,0.00,WeatherDisplay:10.37,2013-02-12 23:35:00,
2013-02-12 17:40:00,44.2,27.2,29.26,WSW,246,1.0,1.0,51,0.00,CLR,,0.00,WeatherDisplay:10.37,2013-02-12 23:40:00,
2013-02-12 17:45:00,44.2,27.2,29.26,WSW,240,1.0,1.0,51,0.00,CLR,,0.00,WeatherDisplay:10.37,2013-02-12 23:45:00,
2013-02-12 17:50:00,44.2,27.2,29.26,WSW,247,1.0,1.0,51,0.00,CLR,,0.00,WeatherDisplay:10.37,2013-02-12 23:50:00,
2013-02-12 17:55:00,44.2,27.2,29.26,WSW,250,1.0,1.0,51,0.00,CLR,,0.00,WeatherDisplay:10.37,2013-02-12 23:55:00,
2013-02-12 18:00:00,34.9,23.9,29.26,WSW,250,1.0,1.0,64,0.00,CLR,,0.00,WeatherDisplay:10.37,2013-02-13 00:00:00,
2013-02-12 18:05:00,34.5,23.6,29.26,WSW,250,1.0,1.0,64,0.00,CLR,,0.00,WeatherDisplay:10.37,2013-02-13 00:05:00,
2013-02-12 18:10:00,34.3,23.4,29.26,WSW,250,1.0,1.0,64,0.00,CLR,,0.00,WeatherDisplay:10.37,2013-02-13 00:10:00,
2013-02-12 18:15:00,34.2,23.6,29.26,WSW,250,1.0,1.0,65,0.00,CLR,,0.00,WeatherDisplay:10.37,2013-02-13 00:15:00,
2013-02-12 18:19:00,33.6,23.5,29.26,WSW,250,0.0,1.0,66,0.00,CLR,,0.00,WeatherDisplay:10.37,2013-02-13 00:19:00,
2013-02-12 18:25:00,33.6,23.8,29.26,WSW,250,0.0,0.0,67,0.00,CLR,,0.00,WeatherDisplay:10.37,2013-02-13 00:25:00,
2013-02-12 18:30:00,33.4,23.7,29.26,WSW,250,0.0,0.0,67,0.00,CLR,,0.00,WeatherDisplay:10.37,2013-02-13 00:30:00,
2013-02-12 18:35:00,33.4,24.0,29.26,WSW,250,0.0,0.0,68,0.00,CLR,,0.00,WeatherDisplay:10.37,2013-02-13 00:35:00,
2013-02-12 18:40:00,33.4,24.0,29.26,WSW,250,0.0,0.0,68,0.00,CLR,,0.00,WeatherDisplay:10.37,2013-02-13 00:40:00,
2013-02-12 18:45:00,33.4,24.0,29.26,WSW,250,0.0,0.0,68,0.00,CLR,,0.00,WeatherDisplay:10.37,2013-02-13 00:45:00,
2013-02-12 18:49:00,33.4,24.4,29.26,WSW,250,0.0,0.0,69,0.00,CLR,,0.00,WeatherDisplay:10.37,2013-02-13 00:49:00,
2013-02-12 18:55:00,33.3,24.5,29.26,WSW,250,0.0,0.0,70,0.00,CLR,,0.00,WeatherDisplay:10.37,2013-02-13 00:55:00,
2013-02-12 18:59:00,33.1,24.7,29.24,WSW,250,0.0,0.0,71,0.00,CLR,,0.00,WeatherDisplay:10.37,2013-02-13 00:59:00,
2013-02-12 19:05:00,32.9,24.5,29.24,WSW,250,0.0,0.0,71,0.00,CLR,,0.00,WeatherDisplay:10.37,2013-02-13 01:05:00,
2013-02-12 19:10:00,32.9,24.5,29.24,WSW,250,0.0,0.0,71,0.00,CLR,,0.00,WeatherDisplay:10.37,2013-02-13 01:10:00,
2013-02-12 19:14:00,32.5,24.2,29.24,WSW,250,0.0,0.0,71,0.00,CLR,,0.00,WeatherDisplay:10.37,2013-02-13 01:14:00,
2013-02-12 19:20:00,32.4,24.0,29.24,WSW,250,0.0,0.0,71,0.00,CLR,,0.00,WeatherDisplay:10.37,2013-02-13 01:20:00,
2013-02-12 19:25:00,32.5,24.5,29.24,WSW,250,0.0,0.0,72,0.00,CLR,,0.00,WeatherDisplay:10.37,2013-02-13 01:25:00,
2013-02-12 19:30:00,32.4,24.3,29.24,WSW,250,0.0,0.0,72,0.00,CLR,,0.00,WeatherDisplay:10.37,2013-02-13 01:30:00,
2013-02-12 19:35:00,32.5,24.5,29.24,WSW,250,0.0,0.0,72,0.00,CLR,,0.00,WeatherDisplay:10.37,2013-02-13 01:35:00,
2013-02-12 19:40:00,32.7,24.7,29.24,WSW,250,0.0,0.0,72,0.00,CLR,,0.00,WeatherDisplay:10.37,2013-02-13 01:40:00,
2013-02-12 19:45:00,32.7,25.3,29.24,WSW,250,0.0,0.0,74,0.00,CLR,,0.00,WeatherDisplay:10.37,2013-02-13 01:45:00,
2013-02-12 19:50:00,32.7,25.3,29.24,WSW,250,0.0,0.0,74,0.00,SCT,,0.00,WeatherDisplay:10.37,2013-02-13 01:50:00,
2013-02-12 19:55:00,32.7,25.3,29.24,WSW,250,0.0,0.0,74,0.00,SCT,,0.00,WeatherDisplay:10.37,2013-02-13 01:55:00,
2013-02-12 20:00:00,32.7,25.3,29.24,WSW,250,0.0,0.0,74,0.00,SCT,,0.00,WeatherDisplay:10.37,2013-02-13 02:00:00,
2013-02-12 20:05:00,32.5,25.2,29.24,WSW,250,0.0,0.0,74,0.00,SCT,,0.00,WeatherDisplay:10.37,2013-02-13 02:05:00,
2013-02-12 20:10:00,32.4,25.0,29.24,WSW,250,0.0,0.0,74,0.00,SCT,,0.00,WeatherDisplay:10.37,2013-02-13 02:10:00,
2013-02-12 20:15:00,32.5,25.5,29.24,West,264,0.0,0.0,75,0.00,SCT,,0.00,WeatherDisplay:10.37,2013-02-13 02:15:00,
2013-02-12 20:20:00,32.5,25.5,29.24,West,281,0.0,0.0,75,0.00,SCT,,0.00,WeatherDisplay:10.37,2013-02-13 02:20:00,
2013-02-12 20:25:00,32.7,25.7,29.24,West,280,0.0,0.0,75,0.00,SCT,,0.00,WeatherDisplay:10.37,2013-02-13 02:25:00,
2013-02-12 20:30:00,32.5,25.5,29.24,WNW,284,0.0,0.0,75,0.00,SCT,,0.00,WeatherDisplay:10.37,2013-02-13 02:30:00,
2013-02-12 20:34:00,32.5,25.5,29.24,WNW,283,0.0,0.0,75,0.00,BKN,,0.00,WeatherDisplay:10.37,2013-02-13 02:34:00,
2013-02-12 20:40:00,32.7,26.0,29.24,West,281,0.0,0.0,76,0.00,BKN,,0.00,WeatherDisplay:10.37,2013-02-13 02:40:00,
2013-02-12 20:45:00,32.5,25.8,29.24,West,280,0.0,0.0,76,0.00,BKN,,0.00,WeatherDisplay:10.37,2013-02-13 02:45:00,
2013-02-12 20:49:00,32.5,25.8,29.24,West,280,0.0,0.0,76,0.00,BKN,,0.00,WeatherDisplay:10.37,2013-02-13 02:49:00,
2013-02-12 20:55:00,32.4,25.6,29.24,West,280,0.0,0.0,76,0.00,BKN,,0.00,WeatherDisplay:10.37,2013-02-13 02:55:00,
2013-02-12 20:59:00,32.5,25.8,29.24,West,280,0.0,0.0,76,0.00,BKN,,0.00,WeatherDisplay:10.37,2013-02-13 02:59:00,
2013-02-12 21:05:00,32.5,25.8,29.24,West,280,0.0,0.0,76,0.00,OVC,,0.00,WeatherDisplay:10.37,2013-02-13 03:05:00,
2013-02-12 21:10:00,32.5,26.1,29.24,West,280,0.0,0.0,77,0.00,OVC,,0.00,WeatherDisplay:10.37,2013-02-13 03:10:00,
2013-02-12 21:14:00,32.4,26.0,29.24,West,280,0.0,0.0,77,0.00,OVC,,0.00,WeatherDisplay:10.37,2013-02-13 03:14:00,
2013-02-12 21:20:00,32.5,26.1,29.24,West,280,0.0,0.0,77,0.00,OVC,,0.00,WeatherDisplay:10.37,2013-02-13 03:20:00,
2013-02-12 21:25:00,32.5,26.1,29.24,West,280,0.0,0.0,77,0.00,OVC,,0.00,WeatherDisplay:10.37,2013-02-13 03:25:00,
2013-02-12 21:30:00,32.5,26.1,29.24,West,280,0.0,0.0,77,0.00,OVC,,0.00,WeatherDisplay:10.37,2013-02-13 03:30:00,
2013-02-12 21:35:00,32.5,26.1,29.24,NW,307,0.0,0.0,77,0.00,OVC,,0.00,WeatherDisplay:10.37,2013-02-13 03:35:00,
2013-02-12 21:40:00,32.5,26.1,29.24,North,9,1.0,1.0,77,0.00,OVC,,0.00,WeatherDisplay:10.37,2013-02-13 03:40:00,
2013-02-12 21:44:00,32.7,26.6,29.24,NNE,15,1.0,1.0,78,0.00,OVC,,0.00,WeatherDisplay:10.37,2013-02-13 03:44:00,
2013-02-12 21:49:00,32.7,26.6,29.24,NNE,15,2.0,2.0,78,0.00,OVC,,0.00,WeatherDisplay:10.37,2013-02-13 03:49:00,
2013-02-12 21:55:00,32.9,27.1,29.20,NNE,15,2.0,2.0,79,0.00,OVC,,0.00,WeatherDisplay:10.37,2013-02-13 03:55:00,
2013-02-12 21:59:00,32.9,27.1,29.24,NNE,15,2.0,2.0,79,0.00,OVC,,0.00,WeatherDisplay:10.37,2013-02-13 03:59:00,
2013-02-12 22:05:00,33.1,27.3,29.24,NNE,15,2.0,3.0,79,0.00,OVC,,0.00,WeatherDisplay:10.37,2013-02-13 04:05:00,
2013-02-12 22:10:00,32.9,27.1,29.24,NNE,15,2.0,3.0,79,0.00,OVC,,0.00,WeatherDisplay:10.37,2013-02-13 04:10:00,
2013-02-12 22:15:00,32.9,27.1,29.24,NNE,15,3.0,3.0,79,0.00,OVC,,0.00,WeatherDisplay:10.37,2013-02-13 04:15:00,
2013-02-12 22:19:00,32.9,27.1,29.20,NNE,15,3.0,3.0,79,0.00,OVC,,0.00,WeatherDisplay:10.37,2013-02-13 04:19:00,
2013-02-12 22:25:00,32.9,27.1,29.20,NNE,15,3.0,3.0,79,0.00,OVC,,0.00,WeatherDisplay:10.37,2013-02-13 04:25:00,
2013-02-12 22:30:00,32.7,26.9,29.20,NNE,15,3.0,3.0,79,0.00,OVC,,0.00,WeatherDisplay:10.37,2013-02-13 04:30:00,
2013-02-12 22:35:00,32.7,26.9,29.20,NNE,15,3.0,3.0,79,0.00,OVC,,0.00,WeatherDisplay:10.37,2013-02-13 04:35:00,
2013-02-12 22:40:00,32.7,26.9,29.20,NNE,15,3.0,3.0,79,0.00,OVC,,0.00,WeatherDisplay:10.37,2013-02-13 04:40:00,
2013-02-12 22:45:00,32.9,27.1,29.20,NNE,15,3.0,3.0,79,0.00,OVC,,0.00,WeatherDisplay:10.37,2013-02-13 04:45:00,
2013-02-12 22:54:00,32.5,26.7,29.20,NNE,15,3.0,3.0,79,0.00,BKN,,0.00,WeatherDisplay:10.37,2013-02-13 04:54:00,
2013-02-12 23:00:00,32.5,26.7,29.20,NNE,15,3.0,3.0,79,0.00,BKN,,0.00,WeatherDisplay:10.37,2013-02-13 05:00:00,
2013-02-12 23:05:00,32.4,26.9,29.20,NNE,15,3.0,3.0,80,0.00,SCT,,0.00,WeatherDisplay:10.37,2013-02-13 05:05:00,
2013-02-12 23:10:00,32.5,27.1,29.20,NNE,15,3.0,3.0,80,0.00,SCT,,0.00,WeatherDisplay:10.37,2013-02-13 05:10:00,
2013-02-12 23:15:00,32.4,26.9,29.20,NNE,15,2.0,3.0,80,0.00,SCT,,0.00,WeatherDisplay:10.37,2013-02-13 05:15:00,
2013-02-12 23:20:00,32.5,27.1,29.20,NNE,15,2.0,3.0,80,0.00,SCT,,0.00,WeatherDisplay:10.37,2013-02-13 05:20:00,
2013-02-12 23:25:00,32.4,26.9,29.20,NNE,15,2.0,3.0,80,0.00,SCT,,0.00,WeatherDisplay:10.37,2013-02-13 05:25:00,
2013-02-12 23:30:00,32.4,26.9,29.20,NNE,15,2.0,3.0,80,0.00,SCT,,0.00,WeatherDisplay:10.37,2013-02-13 05:30:00,
2013-02-12 23:35:00,32.4,26.9,29.20,NNE,15,2.0,2.0,80,0.00,BKN,,0.00,WeatherDisplay:10.37,2013-02-13 05:35:00,
2013-02-12 23:40:00,32.5,27.1,29.20,NNE,15,2.0,2.0,80,0.00,BKN,,0.00,WeatherDisplay:10.37,2013-02-13 05:40:00,
2013-02-12 23:45:00,32.4,26.9,29.20,NNE,15,1.0,2.0,80,0.00,BKN,,0.00,WeatherDisplay:10.37,2013-02-13 05:45:00,
2013-02-12 23:50:00,32.4,26.9,29.20,NNE,15,1.0,2.0,80,0.00,SCT,,0.00,WeatherDisplay:10.37,2013-02-13 05:50:00,
2013-02-12 23:55:00,32.4,26.9,29.20,NNE,15,1.0,1.0,80,0.00,SCT,,0.00,WeatherDisplay:10.37,2013-02-13 05:55:00,